Time,TemperatureF,DewpointF,PressureIn,WindDirection,WindDirectionDegrees,WindSpeedMPH,WindSpeedGustMPH,Humidity,HourlyPrecipIn,Conditions,Clouds,dailyrainin,SoftwareType,DateUTC
2013-04-04 00:09:00,29.8,13.5,30.22,WSW,247,4.7,-999.0,50,-99.99,,,0.00,Acu-Link.com,2013-04-04 04:09:00,
2013-04-04 00:24:00,29.8,13.9,30.23,ESE,112,1.6,-999.0,51,-99.99,,,0.00,Acu-Link.com,2013-04-04 04:24:00,
2013-04-04 00:40:00,29.3,14.3,30.23,NW,315,6.7,-999.0,53,-99.99,,,0.00,Acu-Link.com,2013-04-04 04:40:00,
2013-04-04 00:55:00,29.1,14.6,30.24,NE,45,5.1,-999.0,54,-99.99,,,0.00,Acu-Link.com,2013-04-04 04:55:00,
2013-04-04 01:10:00,29.1,14.1,30.23,NE,45,0.0,-999.0,53,-99.99,,,0.00,Acu-Link.com,2013-04-04 05:10:00,
2013-04-04 01:25:00,28.6,14.5,30.23,West,270,3.1,-999.0,55,-99.99,,,0.00,Acu-Link.com,2013-04-04 05:25:00,
2013-04-04 01:40:00,28.8,14.7,30.23,NW,315,3.1,-999.0,55,-99.99,,,0.00,Acu-Link.com,2013-04-04 05:40:00,
2013-04-04 01:56:00,28.4,14.7,30.22,ENE,67,1.1,-999.0,56,-99.99,,,0.00,Acu-Link.com,2013-04-04 05:56:00,
2013-04-04 02:11:00,28.2,15.4,30.22,North,0,2.2,-999.0,58,-99.99,,,0.00,Acu-Link.com,2013-04-04 06:11:00,
2013-04-04 02:26:00,27.9,15.4,30.22,West,270,1.6,-999.0,59,-99.99,,,0.00,Acu-Link.com,2013-04-04 06:26:00,
2013-04-04 02:41:00,27.5,15.5,30.22,West,270,0.0,-999.0,60,-99.99,,,0.00,Acu-Link.com,2013-04-04 06:41:00,
2013-04-04 02:56:00,27.0,15.3,30.21,NNE,22,1.1,-999.0,61,-99.99,,,0.00,Acu-Link.com,2013-04-04 06:56:00,
2013-04-04 03:12:00,26.6,15.7,30.21,SSW,202,0.0,-999.0,63,-99.99,,,0.00,Acu-Link.com,2013-04-04 07:12:00,
2013-04-04 03:27:00,27.0,15.7,30.22,NE,45,3.1,-999.0,62,-99.99,,,0.00,Acu-Link.com,2013-04-04 07:27:00,
2013-04-04 03:42:00,27.0,16.4,30.22,East,90,1.1,-999.0,64,-99.99,,,0.00,Acu-Link.com,2013-04-04 07:42:00,
2013-04-04 03:57:00,26.8,16.3,30.21,West,270,0.0,-999.0,64,-99.99,,,0.00,Acu-Link.com,2013-04-04 07:57:00,
2013-04-04 04:13:00,26.6,16.1,30.22,SSW,202,1.6,-999.0,64,-99.99,,,0.00,Acu-Link.com,2013-04-04 08:13:00,
2013-04-04 04:44:00,25.5,16.5,30.24,NNE,22,0.0,-999.0,68,-99.99,,,0.00,Acu-Link.com,2013-04-04 08:44:00,
2013-04-04 04:59:00,24.6,16.3,30.24,West,270,0.0,-999.0,70,-99.99,,,0.00,Acu-Link.com,2013-04-04 08:59:00,
2013-04-04 05:14:00,24.3,16.2,30.25,West,270,0.0,-999.0,71,-99.99,,,0.00,Acu-Link.com,2013-04-04 09:14:00,
2013-04-04 05:29:00,25.2,16.8,30.26,West,270,1.1,-999.0,70,-99.99,,,0.00,Acu-Link.com,2013-04-04 09:29:00,
2013-04-04 05:44:00,24.8,16.8,30.27,North,0,0.0,-999.0,71,-99.99,,,0.00,Acu-Link.com,2013-04-04 09:44:00,
2013-04-04 05:59:00,24.8,17.1,30.28,NNE,22,0.0,-999.0,72,-99.99,,,0.00,Acu-Link.com,2013-04-04 09:59:00,
2013-04-04 06:15:00,25.5,17.8,30.29,NNE,22,1.1,-999.0,72,-99.99,,,0.00,Acu-Link.com,2013-04-04 10:15:00,
2013-04-04 06:45:00,24.6,17.2,30.30,NW,315,0.0,-999.0,73,-99.99,,,0.00,Acu-Link.com,2013-04-04 10:45:00,
2013-04-04 07:00:00,24.3,17.2,30.31,North,0,0.0,-999.0,74,-99.99,,,0.00,Acu-Link.com,2013-04-04 11:00:00,
2013-04-04 07:15:00,25.3,17.9,30.31,WNW,292,1.6,-999.0,73,-99.99,,,0.00,Acu-Link.com,2013-04-04 11:15:00,
2013-04-04 07:31:00,26.1,18.6,30.31,West,270,0.0,-999.0,73,-99.99,,,0.00,Acu-Link.com,2013-04-04 11:31:00,
2013-04-04 07:46:00,29.3,19.4,30.33,NNW,337,3.1,-999.0,66,-99.99,,,0.00,Acu-Link.com,2013-04-04 11:46:00,
2013-04-04 08:01:00,30.7,20.0,30.34,WSW,247,0.0,-999.0,64,-99.99,,,0.00,Acu-Link.com,2013-04-04 12:01:00,
2013-04-04 08:16:00,32.0,20.1,30.34,WNW,292,2.7,-999.0,61,-99.99,,,0.00,Acu-Link.com,2013-04-04 12:16:00,
2013-04-04 08:47:00,33.6,19.2,30.34,WNW,292,4.7,-999.0,55,-99.99,,,0.00,Acu-Link.com,2013-04-04 12:47:00,
2013-04-04 09:02:00,36.0,20.1,30.33,WNW,292,0.0,-999.0,52,-99.99,,,0.00,Acu-Link.com,2013-04-04 13:02:00,
2013-04-04 09:17:00,37.2,19.4,30.33,WNW,292,1.6,-999.0,48,-99.99,,,0.00,Acu-Link.com,2013-04-04 13:17:00,
2013-04-04 09:32:00,37.9,18.0,30.32,WSW,247,1.6,-999.0,44,-99.99,,,0.00,Acu-Link.com,2013-04-04 13:32:00,
2013-04-04 09:48:00,39.7,19.1,30.32,West,270,0.0,-999.0,43,-99.99,,,0.00,Acu-Link.com,2013-04-04 13:48:00,
2013-04-04 10:03:00,40.1,17.7,30.31,East,90,2.7,-999.0,40,-99.99,,,0.00,Acu-Link.com,2013-04-04 14:03:00,
2013-04-04 10:18:00,41.0,17.4,30.31,SE,135,2.2,-999.0,38,-99.99,,,0.00,Acu-Link.com,2013-04-04 14:18:00,
2013-04-04 10:33:00,42.3,18.5,30.30,SSE,157,2.7,-999.0,38,-99.99,,,0.00,Acu-Link.com,2013-04-04 14:33:00,
2013-04-04 10:48:00,43.5,18.4,30.30,South,180,4.7,-999.0,36,-99.99,,,0.00,Acu-Link.com,2013-04-04 14:48:00,
2013-04-04 11:04:00,43.2,18.0,30.29,WNW,292,4.3,-999.0,36,-99.99,,,0.00,Acu-Link.com,2013-04-04 15:04:00,
2013-04-04 11:19:00,44.2,17.7,30.29,SSW,202,3.1,-999.0,34,-99.99,,,0.00,Acu-Link.com,2013-04-04 15:19:00,
2013-04-04 11:34:00,46.9,17.9,30.29,SSE,157,2.2,-999.0,31,-99.99,,,0.00,Acu-Link.com,2013-04-04 15:34:00,
2013-04-04 11:49:00,46.9,18.6,30.29,West,270,5.1,-999.0,32,-99.99,,,0.00,Acu-Link.com,2013-04-04 15:49:00,
2013-04-04 12:04:00,47.5,17.6,30.28,NNW,337,6.3,-999.0,30,-99.99,,,0.00,Acu-Link.com,2013-04-04 16:04:00,
2013-04-04 12:20:00,47.8,20.1,30.28,SW,225,2.7,-999.0,33,-99.99,,,0.00,Acu-Link.com,2013-04-04 16:20:00,
2013-04-04 12:35:00,48.7,20.2,30.27,West,270,4.3,-999.0,32,-99.99,,,0.00,Acu-Link.com,2013-04-04 16:35:00,
2013-04-04 12:50:00,50.2,18.4,30.26,South,180,1.6,-999.0,28,-99.99,,,0.00,Acu-Link.com,2013-04-04 16:50:00,
2013-04-04 13:05:00,50.5,18.7,30.25,West,270,5.1,-999.0,28,-99.99,,,0.00,Acu-Link.com,2013-04-04 17:05:00,
2013-04-04 13:20:00,51.1,19.9,30.25,NW,315,2.7,-999.0,29,-99.99,,,0.00,Acu-Link.com,2013-04-04 17:20:00,
2013-04-04 13:36:00,51.3,18.4,30.25,SW,225,3.8,-999.0,27,-99.99,,,0.00,Acu-Link.com,2013-04-04 17:36:00,
2013-04-04 14:06:00,52.9,17.1,30.23,SSW,202,2.7,-999.0,24,-99.99,,,0.00,Acu-Link.com,2013-04-04 18:06:00,
2013-04-04 14:37:00,53.8,18.8,30.21,WSW,247,4.3,-999.0,25,-99.99,,,0.00,Acu-Link.com,2013-04-04 18:37:00,
2013-04-04 14:52:00,54.0,20.8,30.20,SSE,157,5.1,-999.0,27,-99.99,,,0.00,Acu-Link.com,2013-04-04 18:52:00,
2013-04-04 15:07:00,54.1,22.6,30.19,South,180,4.3,-999.0,29,-99.99,,,0.00,Acu-Link.com,2013-04-04 19:07:00,
2013-04-04 15:22:00,57.2,23.5,30.19,WSW,247,3.1,-999.0,27,-99.99,,,0.00,Acu-Link.com,2013-04-04 19:22:00,
2013-04-04 15:37:00,59.9,23.0,30.17,ESE,112,3.8,-999.0,24,-99.99,,,0.00,Acu-Link.com,2013-04-04 19:37:00,
2013-04-04 15:53:00,59.9,22.0,30.17,South,180,5.8,-999.0,23,-99.99,,,0.00,Acu-Link.com,2013-04-04 19:53:00,
2013-04-04 16:08:00,58.8,21.1,30.16,South,180,4.3,-999.0,23,-99.99,,,0.00,Acu-Link.com,2013-04-04 20:08:00,
2013-04-04 16:23:00,55.9,20.6,30.16,North,0,1.6,-999.0,25,-99.99,,,0.00,Acu-Link.com,2013-04-04 20:23:00,
2013-04-04 16:38:00,55.6,20.3,30.15,WSW,247,4.3,-999.0,25,-99.99,,,0.00,Acu-Link.com,2013-04-04 20:38:00,
2013-04-04 17:09:00,53.6,21.3,30.15,SSW,202,4.3,-999.0,28,-99.99,,,0.00,Acu-Link.com,2013-04-04 21:09:00,
2013-04-04 17:24:00,52.5,22.8,30.15,NE,45,3.1,-999.0,31,-99.99,,,0.00,Acu-Link.com,2013-04-04 21:24:00,
2013-04-04 17:39:00,51.6,22.7,30.14,SSE,157,3.8,-999.0,32,-99.99,,,0.00,Acu-Link.com,2013-04-04 21:39:00,
2013-04-04 18:10:00,46.6,22.4,30.14,SSW,202,3.8,-999.0,38,-99.99,,,0.00,Acu-Link.com,2013-04-04 22:10:00,
2013-04-04 18:25:00,45.5,23.2,30.14,SSW,202,3.8,-999.0,41,-99.99,,,0.00,Acu-Link.com,2013-04-04 22:25:00,
2013-04-04 18:40:00,44.4,22.8,30.14,SW,225,3.1,-999.0,42,-99.99,,,0.00,Acu-Link.com,2013-04-04 22:40:00,
2013-04-04 18:55:00,43.2,22.2,30.15,WSW,247,1.6,-999.0,43,-99.99,,,0.00,Acu-Link.com,2013-04-04 22:55:00,
2013-04-04 19:10:00,41.4,23.2,30.15,SW,225,3.8,-999.0,48,-99.99,,,0.00,Acu-Link.com,2013-04-04 23:10:00,
2013-04-04 19:26:00,40.5,23.8,30.15,SSW,202,3.1,-999.0,51,-99.99,,,0.00,Acu-Link.com,2013-04-04 23:26:00,
2013-04-04 19:41:00,39.7,25.3,30.15,West,270,1.6,-999.0,56,-99.99,,,0.00,Acu-Link.com,2013-04-04 23:41:00,
2013-04-04 20:11:00,38.5,26.2,30.15,WSW,247,3.8,-999.0,61,-99.99,,,0.00,Acu-Link.com,2013-04-05 00:11:00,
2013-04-04 20:26:00,37.9,26.9,30.15,NNW,337,2.7,-999.0,64,-99.99,,,0.00,Acu-Link.com,2013-04-05 00:26:00,
2013-04-04 20:42:00,37.6,27.6,30.15,NNW,337,2.7,-999.0,67,-99.99,,,0.00,Acu-Link.com,2013-04-05 00:42:00,
2013-04-04 20:57:00,37.2,28.0,30.15,SW,225,4.3,-999.0,69,-99.99,,,0.00,Acu-Link.com,2013-04-05 00:57:00,
2013-04-04 21:12:00,36.7,28.5,30.14,WSW,247,3.1,-999.0,72,-99.99,,,0.00,Acu-Link.com,2013-04-05 01:12:00,
2013-04-04 21:27:00,36.5,29.0,30.14,South,180,2.2,-999.0,74,-99.99,,,0.00,Acu-Link.com,2013-04-05 01:27:00,
2013-04-04 21:43:00,36.1,29.3,30.13,ESE,112,1.6,-999.0,76,-99.99,,,0.00,Acu-Link.com,2013-04-05 01:43:00,
2013-04-04 21:58:00,35.6,29.4,30.13,SSE,157,1.1,-999.0,78,-99.99,,,0.00,Acu-Link.com,2013-04-05 01:58:00,
2013-04-04 22:13:00,35.4,29.6,30.13,SSW,202,3.8,-999.0,79,-99.99,,,0.00,Acu-Link.com,2013-04-05 02:13:00,
2013-04-04 22:28:00,35.6,30.1,30.12,WSW,247,1.6,-999.0,80,-99.99,,,0.00,Acu-Link.com,2013-04-05 02:28:00,
2013-04-04 22:43:00,35.6,30.4,30.11,SSW,202,2.7,-999.0,81,-99.99,,,0.00,Acu-Link.com,2013-04-05 02:43:00,
2013-04-04 22:59:00,35.8,30.8,30.11,WSW,247,2.7,-999.0,82,-99.99,,,0.00,Acu-Link.com,2013-04-05 02:59:00,
2013-04-04 23:14:00,35.8,31.1,30.10,SSW,202,2.2,-999.0,83,-99.99,,,0.00,Acu-Link.com,2013-04-05 03:14:00,
2013-04-04 23:29:00,35.8,31.1,30.10,SW,225,3.8,-999.0,83,-99.99,,,0.00,Acu-Link.com,2013-04-05 03:29:00,
2013-04-04 23:44:00,35.8,31.1,30.09,NW,315,2.7,-999.0,83,-99.99,,,0.00,Acu-Link.com,2013-04-05 03:44:00,
2013-04-04 23:59:00,36.1,31.5,30.09,SSW,202,2.2,-999.0,83,-99.99,,,0.00,Acu-Link.com,2013-04-05 03:59:00,